Weather History for Grants-Milan, NM

Change the Weather History Date:

Sunday, May 26, 2013

  Actual Average Record
Temperature  
Mean Temperature 62 °F -  
Max Temperature 83 °F 80 °F 88 °F (1974)
Min Temperature 42 °F 41 °F 29 °F (1980)
Degree Days  
Heating Degree Days 2    
Growing Degree Days 12 (Base 50)    
Moisture  
Dew Point 7 °F    
Average Humidity 12    
Maximum Humidity 22    
Minimum Humidity 5    
Precipitation  
Precipitation 0.00 in - - ()
Sea Level Pressure  
Sea Level Pressure 30.15 in    
Wind  
Wind Speed 6 mph (West)    
Max Wind Speed 22 mph    
Max Gust Speed 33 mph    
Visibility 10 miles    
Events      
Averages and records for this station are not official NWS values.
T = Trace of Precipitation, MM = Missing Value Source: NWS Daily Summary

Daily Weather History Graph

Daily Weather History Graph

Search for Another Location

Airport:

Trip Planner

Search our weather history database for the weather conditions in past years. The results will help you decide how hot, cold, wet, or windy it might be!

Date:

Astronomy

May. 26, 2013 Rise Set
Actual Time 6:00 AM MDT 8:17 PM MDT
Civil Twilight 5:31 AM MDT 8:46 PM MDT
Nautical Twilight 4:56 AM MDT 9:21 PM MDT
Astronomical Twilight 4:17 AM MDT 10:00 PM MDT
Moon 10:08 PM MDT (5/26) 7:32 AM MDT (5/26)
Length of Visible Light 15h 14m
Length of Day
14h 16m
Waning Gibbous, 96% of the Moon is Illuminated
May 26
Waning Gibbous
May 31
Last Quarter
Jun 8
New
Jun 16
First Quarter
Jun 23
Full

Hourly Weather History & Observations

Time (MDT) Temp. Windchill Dew Point Humidity Pressure Visibility Wind Dir Wind Speed Gust Speed Precip Events Conditions
12:15 AM 60.8 °F - 9.0 °F 13% 30.16 in 10.0 mi WNW 6.9 mph - N/A   Clear
12:35 AM 59.5 °F - 8.2 °F 13% 30.15 in 10.0 mi NW 8.1 mph - N/A   Clear
12:55 AM 58.8 °F - 7.3 °F 13% 30.16 in 10.0 mi WNW 3.5 mph - N/A   Clear
1:15 AM 57.7 °F - 7.0 °F 13% 30.16 in 10.0 mi NNW 4.6 mph - N/A   Clear
1:35 AM 55.9 °F - 6.6 °F 14% 30.16 in 10.0 mi NW 3.5 mph - N/A   Clear
1:55 AM 53.1 °F - 5.2 °F 14% 30.16 in 10.0 mi Calm Calm - N/A   Clear
2:15 AM 49.6 °F - 4.1 °F 16% 30.17 in 10.0 mi West 4.6 mph - N/A   Clear
2:35 AM 51.6 °F - 5.2 °F 15% 30.17 in 10.0 mi WNW 3.5 mph - N/A   Clear
2:55 AM 50.5 °F - 5.5 °F 16% 30.18 in 10.0 mi West 5.8 mph - N/A   Clear
3:15 AM 47.3 °F - 5.4 °F 18% 30.18 in 10.0 mi South 3.5 mph - N/A   Clear
3:35 AM 48.9 °F - 6.1 °F 18% 30.18 in 10.0 mi SW 3.5 mph - N/A   Clear
3:55 AM 48.2 °F - 6.3 °F 18% 30.19 in 10.0 mi North 5.8 mph - N/A   Clear
4:15 AM 45.9 °F 44.6 °F 6.3 °F 20% 30.19 in 10.0 mi North 3.5 mph - N/A   Clear
4:35 AM 42.4 °F - 6.1 °F 22% 30.18 in 10.0 mi Calm Calm - N/A   Clear
4:55 AM 46.6 °F - 7.9 °F 21% 30.18 in 10.0 mi East 4.6 mph - N/A   Clear
5:15 AM 47.3 °F - 6.1 °F 19% 30.20 in 10.0 mi Calm Calm - N/A   Clear
5:35 AM 45.0 °F 42.6 °F 6.6 °F 21% 30.20 in 10.0 mi West 4.6 mph - N/A   Clear
5:55 AM 44.1 °F - 6.3 °F 21% 30.20 in 10.0 mi Calm Calm - N/A   Clear
6:15 AM 43.5 °F - 6.1 °F 21% 30.21 in 10.0 mi Calm Calm - N/A   Clear
6:35 AM 43.9 °F - 6.3 °F 21% 30.21 in 10.0 mi Calm Calm - N/A   Clear
6:55 AM 43.9 °F 42.3 °F 7.2 °F 22% 30.22 in 10.0 mi WNW 3.5 mph - N/A   Clear
7:15 AM 44.4 °F 42.0 °F 7.2 °F 22% 30.22 in 10.0 mi NW 4.6 mph - N/A   Clear
7:35 AM 48.6 °F - 7.7 °F 19% 30.22 in 10.0 mi NW 4.6 mph - N/A   Clear
7:55 AM 50.5 °F - 8.2 °F 18% 30.23 in 10.0 mi Calm Calm - N/A   Clear
8:15 AM 52.0 °F - 8.8 °F 18% 30.22 in 10.0 mi Calm Calm - N/A   Clear
8:35 AM 54.1 °F - 7.9 °F 16% 30.22 in 10.0 mi Calm Calm - N/A   Clear
8:55 AM 57.4 °F - 8.6 °F 14% 30.22 in 10.0 mi Calm Calm - N/A   Clear
9:15 AM 59.7 °F - 9.5 °F 14% 30.22 in 10.0 mi Calm Calm - N/A   Clear
9:35 AM 61.5 °F - 9.9 °F 13% 30.21 in 10.0 mi Calm Calm - N/A   Clear
9:55 AM 63.9 °F - 10.8 °F 13% 30.21 in 10.0 mi Calm Calm - N/A   Clear
10:15 AM 66.4 °F - 11.8 °F 12% 30.21 in 10.0 mi Calm Calm - N/A   Clear
10:35 AM 67.8 °F - 12.7 °F 12% 30.20 in 10.0 mi Calm Calm - N/A   Clear
10:55 AM 69.8 °F - 12.7 °F 11% 30.21 in 10.0 mi Calm Calm - N/A   Clear
11:15 AM 71.4 °F - 12.7 °F 11% 30.20 in 10.0 mi Calm Calm - N/A   Clear
11:35 AM 72.5 °F - 12.9 °F 10% 30.20 in 10.0 mi East 5.8 mph - N/A   Clear
11:55 AM 73.8 °F - 12.4 °F 10% 30.18 in 10.0 mi SE 5.8 mph - N/A   Clear
12:15 PM 74.1 °F - 12.6 °F 10% 30.17 in 10.0 mi East 5.8 mph - N/A   Clear
12:35 PM 76.8 °F - 11.7 °F 8% 30.16 in 10.0 mi Calm Calm - N/A   Clear
12:55 PM 77.4 °F - 11.1 °F 8% 30.15 in 10.0 mi WNW 5.8 mph - N/A   Clear
1:15 PM 79.7 °F - 5.4 °F 6% 30.14 in 10.0 mi SW 15.0 mph 24.2 mph N/A   Clear
1:35 PM 80.1 °F - 4.6 °F 6% 30.14 in 10.0 mi WSW 6.9 mph 19.6 mph N/A   Clear
1:55 PM 79.9 °F - 5.2 °F 6% 30.12 in 10.0 mi West 19.6 mph 24.2 mph N/A   Clear
2:15 PM 81.3 °F - 3.7 °F 5% 30.12 in 10.0 mi West 8.1 mph 21.9 mph N/A   Clear
2:35 PM 80.4 °F - 5.7 °F 6% 30.11 in 10.0 mi West 10.4 mph 23.0 mph N/A   Clear
2:55 PM 83.1 °F - 5.2 °F 5% 30.10 in 10.0 mi SSW 4.6 mph 28.8 mph N/A   Clear
3:15 PM 83.3 °F - 5.0 °F 5% 30.10 in 10.0 mi SW 17.3 mph 25.3 mph N/A   Clear
3:35 PM 82.0 °F - 4.1 °F 5% 30.09 in 10.0 mi South 10.4 mph 19.6 mph N/A   Clear
3:55 PM 82.4 °F - 2.7 °F 5% 30.09 in 10.0 mi WSW 12.7 mph 21.9 mph N/A   Clear
4:15 PM 83.1 °F - 2.8 °F 5% 30.08 in 10.0 mi WSW 21.9 mph 29.9 mph N/A   Clear
4:35 PM 81.9 °F - 3.6 °F 5% 30.08 in 10.0 mi West 11.5 mph 17.3 mph N/A   Clear
4:55 PM 82.4 °F - 3.4 °F 5% 30.07 in 10.0 mi WSW 18.4 mph 23.0 mph N/A   Clear
5:15 PM 82.0 °F - 3.6 °F 5% 30.07 in 10.0 mi SW 15.0 mph 31.1 mph N/A   Clear
5:35 PM 81.0 °F - 3.9 °F 5% 30.07 in 10.0 mi West 18.4 mph 27.6 mph N/A   Clear
5:55 PM 80.8 °F - 5.7 °F 6% 30.07 in 10.0 mi West 13.8 mph 33.4 mph N/A   Clear
6:15 PM 79.7 °F - 3.4 °F 5% 30.07 in 10.0 mi WSW 13.8 mph 21.9 mph N/A   Clear
6:35 PM 79.0 °F - 5.5 °F 6% 30.07 in 10.0 mi WNW 15.0 mph 20.7 mph N/A   Clear
6:55 PM 78.3 °F - 5.9 °F 6% 30.08 in 10.0 mi West 16.1 mph 23.0 mph N/A   Clear
7:15 PM 77.2 °F - 5.7 °F 6% 30.08 in 10.0 mi West 17.3 mph 23.0 mph N/A   Clear
7:35 PM 75.9 °F - 5.2 °F 6% 30.09 in 10.0 mi West 15.0 mph 20.7 mph N/A   Clear
7:55 PM 74.3 °F - 5.9 °F 7% 30.09 in 10.0 mi West 11.5 mph 21.9 mph N/A   Clear
8:15 PM 72.5 °F - 6.8 °F 8% 30.10 in 10.0 mi West 12.7 mph 21.9 mph N/A   Clear
8:35 PM 70.3 °F - 6.3 °F 8% 30.11 in 10.0 mi WNW 8.1 mph - N/A   Clear
8:55 PM 66.2 °F - 5.2 °F 9% 30.11 in 10.0 mi NW 4.6 mph - N/A   Clear
9:15 PM 65.3 °F - 5.7 °F 10% 30.12 in 10.0 mi WNW 6.9 mph - N/A   Clear
9:35 PM 63.9 °F - 5.5 °F 10% 30.13 in 10.0 mi NW 4.6 mph - N/A   Clear
9:55 PM 63.7 °F - 6.1 °F 10% 30.14 in 10.0 mi Calm Calm - N/A   Clear
10:15 PM 61.7 °F - 5.2 °F 11% 30.14 in 10.0 mi Calm Calm - N/A   Clear
10:35 PM 58.3 °F - 4.5 °F 12% 30.14 in 10.0 mi Calm Calm - N/A   Clear
10:55 PM 55.9 °F - 3.9 °F 12% 30.15 in 10.0 mi NW 4.6 mph - N/A   Clear
11:15 PM 60.1 °F - 3.9 °F 11% 30.14 in 10.0 mi WNW 9.2 mph - N/A   Clear
11:35 PM 63.5 °F - 4.1 °F 9% 30.14 in 10.0 mi West 16.1 mph 26.5 mph N/A   Clear
11:55 PM 62.8 °F - 3.9 °F 10% 30.14 in 10.0 mi WSW 10.4 mph 17.3 mph N/A   Clear